TDRS 6 (22314 NORAD) Tracking and Keplerian Element Data

This shows tracking and keplerian element data for the satellite.

Feedback or suggestion? Click here.




ElementValue
Catalog22314
NameTDRS 6
Epoch Orbit11740
Epoch Day34.74595406
Epoch Year2025
RAAN0.7215
Inclination14.1696
Eccentricity0.0006514
Argument of Perigee188.5462
Mean Anonmoly167.548
Mean Motion1.00271139
Decay Rate-2.94E-06
L11 22314U 93003B 25034.74595406 -.00000294 00000+0 00000+0 0 9995
L22 22314 14.1696 0.7215 0006514 188.5462 167.5480 1.00271139117404



Live tracking and technical data element details for TDRS 6 (NORAD 22314). TDRS 6 can be tracked NOW for your location showing map with azimuth and elevation plus other details from your city location.







IsCatalogInMostPopularTable: catalog: 22314, numindb: 437
Update: records affected: 1



GetName: 22314 TDRS 6

Hit Count: updated at: Thu, 15 May 2025 19:34:36 GMT